Location: Emblem
(62.4273°N, 6.4710°E)
Time: 19:42:54
(UTC+02:00)

Vanguard 2 - Pass Details

Date: 12 February 2023
Orbit: 553 x 2927 km, 32.9° (Epoch: 27 March)

Event Time Altitude Azimuth Distance (km) Brightness Sun altitude
Rises 00:06:02 0° 243° (WSW) 5,491 11.8 -40.9°
Enters shadow 00:07:28 - 239° (WSW) 5,317 11.7 -40.9°
Reaches altitude 10° 00:11:59 10° 222° (SW) 4,957 - -41.0°
Maximum altitude 00:18:23 14° 196° (SSW) 4,980 - -41.1°
Drops below altitude 10° 00:25:32 10° 170° (S) 5,631 - -41.3°
Sets 00:33:23 0° 151° (SSE) 6,775 - -41.4°
